Location: Treviso
(45.6669°N, 12.2430°E)
Time: 12:08:39
(UTC+02:00)

ISS - Pass Details

Date: 19 May 2018
Orbit: 402 x 407 km, 51.6° (Epoch: 24 May)

Event Time Altitude Azimuth Distance (km) Brightness Sun altitude
Rises 04:04:50 0° 298° (WNW) 2,320 -0.1 -13.2°
Reaches altitude 10° 04:06:57 10° 303° (WNW) 1,459 -1.1 -13.0°
Maximum altitude 04:10:10 54° 22° (NNE) 499 -3.0 -12.6°
Drops below altitude 10° 04:13:22 10° 101° (ESE) 1,454 -0.6 -12.2°
Sets 04:15:28 0° 106° (ESE) 2,311 0.4 -12.0°
